Probability
0 0 0 0 0 0 0 0 0 0 0 0 0 0 0 0 0 0 0 0 0 0 0 0 0 0 0 0 0 0 0 0 0 0 0 0 0 0 0 0 0 0 0
0 0 0 0 0 0 0 0 0 0 0 0 0 0 0 0 0 0 0 0 0 0 0 0 0 0 0 0 0 0 0 0 0 0 0 0 0 0 0 0 0 0 0
0 0 0 0 0 0 0 0 0 0 0 0 0 0 0 0 0 0 0 0 0 0 0 0 0 0 0 0 0 0 0 0 0 0 0 0 0 0 0 0 0 0 0
0 0 0 0 0 0 0 0 0 0 0 0 0 0 0 0 0 0 0 0 0 0 0 0 0 0 0 0 0 0 0 0 0 0 0 0 0 0 0 0 0 0 0
0 0 0 0 0 0 0 0 0 0 0 0 0 0 0 0 0 0 0 0 0 0 0 0 0 0 0 0 0 0 0 0 0 0 0 0 0 0 0 0 0 0 0
0 0 0 0 0 0 0 0 0 0 0 0 0 0 0 0 0 0 0 0 0 0 0 0 0 0 0 0 0 0 0 0 0 0 0 0 0 0 0 0 0 0 0
0 0 0 0 0 0 0 0 0 0 0 0 0 0 0 0 0 0 0 0 0 0 0 0 0 0 0 0 0 0 0 0 0 0 0 0 0 0 0 0 0 0 0
0 0 0 0 0 0 0 0 0 0 0 0 0 0 0 0 0 0 0 0 0 0 0 0 0 0 0 0 0 0 0 0 0 0 0 0 0 0 0 0 0 0 0
0 0 0 0 0 0 0 0 0 0 0 0 0 0 0 0 0 0 0 0 0 0 0 0 0 0 0 0 0 0 0 0 0 0 0 0 0 0 0 0 0 0 0
0 0 0 0 0 0 0 0 0 0 0 0 0 0 0 0 0 0 0 0 0 0 0 0 0 0 0 0 0 0 0 0 0 0 0 0 0 0 0 0 0 0 0
0 0 0 0 0 0 0 0 0 0 0 0 0 0 0 0 0 0 0 0 0 0 0 0 0 0 0 0 0 0 0 0 0 0 0 0 0 0 0 0 0 0 0
0 0 0 0 0 0 0 0 0 0 0 0 0 0 0 0 0 0 0 0 0 0 0 0 0 0 0 0 0 0 0 0 0 0 0 0 0 0 0 0 0 0 0
0 0 0 0 0 0 0 0 0 0 0 0 0 0 0 0 0 0 0 0 0 0 0 0 0 0 0 0 0 0 0 0 0 0 0 0 0 0 0 0 0 0 0
0 0 0 0 0 0 0 0 0 0 0 0 0 0 0 0 0 0 0 0 0 0 0 0 0 0 0 0 0 0 0 0 0 0 0 0 0 0 0 0 0 0 0
0 0 0 0 0 0 0 0 0 0 0 0 0 0 0 0 0 0 0 0 0 0 0 0 0 0 0 0 0 0 0 0 0 0 0 0 0 0 0 0 0 0 0
0 0 0 0 0 0 0 0 0 0 0 0 0 0 0 0 0 0 0 0 0 0 0 0 0 0 0 0 0 0 0 0 0 0 0 0 0 0 0 0 0 0 0
0 0 0 0 0 0 0 0 0 0 0 0 0 0 0 0 0 0 0 0 0 0 0 0 0 0 0 0 0 0 0 0 0 0 0 0 0 0 0 0 0 0 0
0 0 0 0 0 0 0 0 0 0 0 0 0 0 0 0 0 0 0 0 0 0 0 0 0 0 0 0 0 0 0 0 0 0 0 0 0 0 0 0 0 0 0
0 0 0 0 0 0 0 0 0 0 0 0 0 0 0 0 0 0 0 0 0 0 0 0 0 0 0 0 0 0 0 0 0 0 0 0 0 0 0 0 0 0 0
0 0 0 0 0 0 0 0 0 0 0 0 0 0 0 0 0 0 0 0 0 0 0 0 0 0 0 0 0 0 0 0 0 0 0 0 0 0 0 0 0 0 0
0 0 0 0 0 0 0 0 0 0 0 0 0 0 0 0 0 0 0 0 0 0 0 0 0 0 0 0 0 0 0 0 0 0 0 0 0 0 0 0 0 0 0
0 0 0 0 0 0 0 0 0 0 0 0 0 0 0 0 0 0 0 0 0 0 0 0 0 0 0 0 0 0 0 0 0 0 0 0 0 0 0 0 0 0 0
0 0 0 0 0 0 0 0 0 0 0 0 0 0 0 0 0 0 0 0 0 0 0 0 0 0 0 0 0 0 0 0 0 0 0 0 0 0 0 0 0 0 0
0 0 0 0 0 0 0 0 0 0 0 0 0 0 0 0 0 0 0 0 0 0 0 0 0 0 0 0 0 0 0 0 0 0 0 0 0 0 0 0 0 0 0
0 0 0 0 0 0 0 0 0 0 0 0 0 0 0 0 0 0 0 0 0 0 0 0 0 0 0 0 0 0 0 0 0 0 0 0 0 0 0 0 0 0 0
0 0 0 0 0 0 0 0 0 0 0 0 0 0 0 0 0 0 0 0 0 0 0 0 0 0 0 0 0 0 0 0 0 0 0 0 0 0 0 0 0 0 0
Height
5695 5697 5698 5698 5698 5697 5696 5694 5692 5689 5686 5681 5677 5671 5666 5660 5654 5647 5640 5632 5624 5616 5607 5598 5589 5579 5569 5558 5546 5533 5518 5501 5490 5487 5471 5453 5434 5415 5398 5380 5364 5352 5344
5689 5690 5691 5691 5690 5689 5688 5686 5683 5680 5676 5671 5666 5661 5655 5648 5642 5635 5627 5619 5610 5602 5592 5583 5573 5563 5552 5539 5526 5511 5495 5476 5457 5446 5439 5420 5402 5384 5369 5357 5345 5333 5324
5682 5683 5684 5684 5683 5682 5680 5678 5674 5670 5666 5661 5656 5650 5643 5636 5629 5622 5614 5605 5596 5587 5577 5567 5557 5545 5533 5520 5505 5488 5471 5452 5430 5412 5401 5389 5374 5359 5348 5339 5329 5319 5311
5676 5677 5677 5677 5676 5674 5672 5669 5665 5661 5656 5651 5645 5638 5632 5624 5617 5609 5600 5591 5582 5572 5561 5551 5539 5526 5512 5498 5482 5464 5445 5426 5407 5389 5375 5364 5352 5342 5331 5324 5318 5310 5302
5670 5670 5670 5670 5668 5666 5663 5660 5655 5651 5646 5640 5634 5627 5620 5612 5604 5596 5587 5578 5568 5558 5546 5533 5520 5505 5490 5473 5455 5437 5418 5400 5384 5370 5358 5347 5338 5328 5321 5314 5308 5303 5296
5663 5664 5663 5662 5660 5657 5654 5650 5645 5640 5635 5629 5623 5616 5608 5600 5591 5582 5573 5564 5553 5542 5530 5516 5501 5485 5469 5451 5431 5412 5392 5376 5363 5354 5345 5335 5327 5319 5313 5306 5301 5296 5291
5657 5657 5656 5654 5651 5648 5644 5640 5635 5630 5624 5618 5611 5604 5596 5587 5578 5569 5559 5549 5537 5524 5511 5497 5482 5464 5445 5428 5412 5394 5378 5362 5349 5341 5334 5327 5320 5313 5307 5302 5296 5289 5282
5650 5649 5647 5645 5642 5639 5635 5630 5625 5619 5613 5607 5599 5592 5583 5574 5565 5555 5546 5534 5522 5507 5492 5476 5460 5443 5423 5407 5393 5379 5365 5352 5341 5333 5326 5319 5313 5307 5301 5296 5291 5286 5278
5642 5641 5639 5636 5633 5629 5625 5620 5615 5609 5602 5595 5587 5579 5571 5562 5552 5542 5531 5519 5506 5491 5474 5455 5437 5421 5404 5388 5375 5365 5354 5344 5334 5326 5319 5312 5306 5300 5295 5290 5285 5280 5275
5635 5633 5630 5628 5624 5620 5615 5610 5604 5598 5591 5584 5575 5566 5558 5549 5538 5527 5515 5503 5490 5474 5456 5436 5416 5399 5384 5370 5360 5352 5345 5337 5330 5322 5315 5308 5302 5295 5289 5283 5278 5273 5268
5627 5625 5622 5618 5614 5610 5605 5600 5594 5587 5580 5572 5564 5554 5545 5535 5523 5511 5497 5482 5468 5453 5435 5417 5399 5382 5369 5358 5350 5343 5336 5330 5324 5317 5311 5305 5298 5291 5285 5278 5271 5265 5261
5619 5616 5613 5609 5605 5600 5595 5589 5583 5576 5569 5560 5552 5542 5531 5519 5508 5495 5481 5464 5448 5432 5415 5398 5383 5370 5358 5349 5342 5336 5330 5324 5318 5312 5306 5300 5294 5287 5281 5274 5267 5260 5254
5611 5608 5604 5600 5596 5591 5585 5579 5572 5564 5557 5548 5540 5530 5519 5507 5494 5480 5465 5448 5431 5414 5397 5381 5369 5358 5350 5342 5336 5330 5325 5319 5313 5307 5301 5295 5289 5283 5277 5271 5264 5257 5250
5603 5599 5595 5591 5586 5580 5574 5568 5560 5553 5545 5536 5527 5517 5506 5493 5479 5466 5450 5433 5416 5399 5384 5371 5360 5351 5343 5337 5331 5325 5320 5314 5308 5302 5296 5290 5284 5277 5272 5266 5261 5255 5249
5594 5590 5586 5581 5576 5570 5563 5556 5549 5541 5532 5523 5514 5503 5491 5478 5463 5447 5430 5414 5398 5384 5372 5362 5353 5346 5339 5333 5327 5321 5315 5309 5303 5297 5291 5285 5278 5272 5266 5260 5255 5250 5245
5586 5581 5577 5571 5566 5559 5553 5545 5536 5529 5519 5509 5498 5486 5473 5459 5444 5429 5412 5396 5382 5372 5362 5355 5348 5342 5336 5330 5324 5318 5311 5305 5299 5292 5286 5280 5273 5267 5261 5255 5250 5245 5241
5576 5572 5567 5561 5555 5549 5542 5535 5527 5517 5506 5494 5483 5470 5456 5441 5426 5412 5397 5383 5371 5363 5356 5349 5343 5338 5332 5326 5320 5314 5308 5301 5294 5288 5281 5274 5268 5261 5255 5250 5245 5241 5236
5567 5562 5557 5551 5545 5539 5532 5524 5516 5507 5497 5484 5470 5456 5441 5425 5410 5396 5384 5373 5364 5356 5350 5345 5339 5334 5329 5323 5317 5311 5304 5297 5290 5283 5276 5269 5263 5256 5251 5245 5241 5237 5233
5557 5552 5547 5541 5535 5529 5521 5513 5504 5494 5482 5470 5457 5442 5427 5411 5395 5382 5372 5365 5357 5351 5346 5341 5336 5331 5326 5320 5314 5307 5300 5293 5286 5279 5272 5265 5258 5252 5247 5241 5237 5233 5229
5548 5543 5538 5532 5525 5518 5510 5501 5491 5480 5468 5455 5441 5428 5413 5399 5385 5373 5364 5357 5352 5347 5343 5339 5334 5329 5323 5318 5311 5304 5297 5290 5283 5275 5268 5261 5255 5249 5243 5238 5233 5230 5226
5539 5534 5528 5522 5515 5507 5499 5489 5478 5466 5453 5439 5424 5410 5396 5385 5374 5365 5358 5353 5348 5344 5341 5337 5332 5327 5322 5315 5309 5301 5294 5287 5279 5272 5265 5258 5251 5245 5239 5234 5230 5227 5224
5530 5525 5519 5512 5504 5496 5486 5475 5464 5451 5438 5424 5409 5395 5382 5372 5364 5358 5353 5349 5346 5343 5339 5336 5331 5326 5320 5314 5307 5300 5292 5284 5277 5269 5262 5255 5248 5242 5236 5231 5227 5224 5221
5521 5516 5509 5501 5493 5483 5473 5461 5449 5436 5422 5408 5395 5382 5372 5363 5357 5353 5349 5347 5344 5342 5339 5335 5330 5325 5319 5312 5305 5298 5290 5283 5275 5267 5260 5253 5246 5239 5234 5229 5224 5221 5219
5512 5506 5498 5490 5481 5470 5459 5447 5434 5421 5407 5394 5382 5371 5363 5357 5352 5349 5347 5345 5343 5341 5338 5334 5330 5324 5318 5311 5304 5297 5289 5281 5274 5266 5258 5251 5244 5237 5231 5226 5222 5220 5218
5502 5495 5487 5478 5468 5457 5445 5432 5419 5406 5393 5381 5371 5363 5356 5352 5349 5347 5346 5345 5343 5341 5338 5334 5330 5324 5318 5311 5304 5297 5289 5281 5273 5265 5257 5249 5242 5235 5230 5225 5221 5219 5217
5492 5484 5475 5465 5454 5443 5431 5418 5404 5392 5380 5370 5362 5356 5351 5348 5347 5346 5345 5344 5343 5341 5338 5335 5330 5325 5319 5312 5306 5299 5291 5283 5275 5267 5258 5250 5243 5236 5230 5226 5222 5220 5219
Wind_Speed
30 30 30 30 31 32 33 35 37 39 41 44 46 48 50 52 53 55 58 61 64 66 67 68 69 72 74 79 83 88 94 100 104 104 107 108 107 104 100 95 90 84 77
30 30 30 30 31 32 34 35 38 40 43 45 47 49 51 53 55 58 61 64 65 67 68 69 71 74 79 84 89 94 100 106 110 110 106 102 95 88 82 75 69 64 60
29 29 29 29 31 33 34 37 39 42 44 46 48 50 52 55 57 60 63 65 67 68 69 71 75 79 84 89 94 100 105 107 108 107 100 90 80 72 65 57 52 49 48
28 28 28 30 31 33 36 38 41 43 45 47 49 52 54 57 60 63 65 66 67 69 71 75 79 84 89 95 100 105 106 105 101 94 86 75 65 56 50 44 39 37 38
27 27 28 30 32 35 37 40 42 44 46 49 51 53 56 59 62 64 66 66 68 70 74 79 84 90 95 101 105 105 102 96 88 80 70 60 52 45 39 34 31 29 31
27 27 29 31 33 36 39 41 43 45 48 50 52 55 58 61 63 65 66 67 70 74 78 83 89 95 100 103 104 99 91 83 75 66 56 48 42 36 31 29 28 27 28
26 27 30 32 35 37 40 42 44 47 49 51 54 57 60 62 64 65 66 69 73 78 83 88 94 99 103 102 96 86 76 68 61 54 46 40 35 31 28 27 27 27 29
26 29 32 34 36 38 40 42 45 48 50 53 56 59 61 63 63 65 68 72 77 82 88 94 98 101 100 95 85 72 62 54 49 44 41 36 33 31 29 27 25 25 28
28 31 33 35 37 39 41 44 46 48 52 55 58 60 61 62 64 67 71 76 81 86 92 98 101 99 93 84 72 59 50 43 40 39 37 35 34 33 31 28 27 26 25
30 32 33 35 37 40 42 45 47 50 53 56 58 60 61 63 66 70 75 80 85 90 96 99 97 91 81 69 58 47 39 35 34 34 33 33 33 33 33 32 31 29 27
30 32 34 36 38 41 43 46 49 52 54 56 58 59 62 65 70 75 80 85 90 95 97 94 87 78 66 56 47 39 34 32 31 31 31 30 31 32 32 33 34 33 30
30 32 34 37 39 41 44 47 50 52 54 55 57 60 64 69 73 78 83 89 94 96 92 85 74 63 53 45 38 33 31 31 30 30 30 30 30 30 31 32 33 34 33
31 33 35 38 40 43 46 49 51 53 54 55 58 61 66 71 76 81 87 92 94 91 82 71 61 50 42 36 32 30 29 29 29 29 29 29 30 30 29 29 30 32 33
31 34 36 39 42 44 47 49 51 52 54 57 60 64 69 74 79 84 89 92 90 81 69 57 47 39 34 31 29 29 29 29 29 28 28 29 30 31 30 29 28 28 27
33 35 38 41 43 45 47 49 51 53 56 59 63 68 73 78 83 89 92 89 81 69 55 44 37 32 30 29 29 30 29 30 30 30 30 30 31 31 31 30 28 27 25
35 37 40 42 44 45 47 49 51 54 58 63 68 73 78 83 87 90 87 79 67 55 44 36 31 28 27 27 27 28 30 30 30 30 31 31 31 30 30 29 28 26 24
36 38 40 42 44 45 47 49 52 57 62 68 72 77 81 86 89 86 77 66 54 44 35 30 28 26 25 26 27 28 29 30 31 31 32 32 31 30 29 27 25 24 22
37 39 41 42 44 45 47 50 54 59 64 70 75 79 84 87 84 76 66 53 44 36 30 26 24 24 25 26 27 29 30 31 31 32 32 31 30 29 27 25 23 21 19
38 39 41 42 44 46 49 53 58 63 68 73 77 82 85 82 75 66 55 44 35 29 25 23 22 23 24 26 28 29 30 31 31 31 31 30 29 27 26 25 23 20 17
38 39 41 42 45 48 52 57 62 67 72 76 80 83 82 74 64 54 44 35 28 23 20 20 20 22 24 26 28 30 31 32 32 32 31 29 28 27 26 24 22 19 16
38 39 41 44 47 52 57 61 66 71 75 79 83 82 75 65 53 43 33 26 21 18 17 18 20 22 25 27 29 30 31 32 32 31 30 29 28 27 25 23 21 18 15
38 40 43 47 51 56 61 66 70 74 78 81 80 74 65 54 43 33 25 18 15 13 14 17 20 23 25 27 29 30 31 31 31 31 30 30 28 27 25 23 20 16 13
39 42 46 50 55 60 65 69 73 77 80 79 73 64 53 43 32 24 17 12 11 11 14 17 20 23 26 28 29 30 31 31 31 31 30 30 28 27 25 22 18 14 11
42 46 50 54 59 64 68 73 76 79 78 72 63 53 43 33 23 15 10 8 9 10 13 17 20 23 26 28 29 30 31 32 32 32 31 30 28 27 24 20 16 12 9
45 49 54 59 63 67 72 76 78 77 72 63 53 43 33 22 14 9 6 5 7 10 13 17 20 23 26 27 29 31 32 33 33 33 32 31 29 26 23 19 15 11 8
49 54 58 63 67 71 75 77 76 71 62 53 43 33 22 14 8 4 3 4 7 10 13 17 20 23 25 27 29 31 32 33 33 33 32 31 28 26 23 19 15 12 10
Wind_Direction
246 252 256 262 267 272 277 281 285 288 291 294 296 298 299 301 302 303 304 305 306 306 307 307 307 307 308 308 308 308 308 308 308 308 307 306 304 302 301 299 298 297 296
247 253 259 265 270 275 280 284 287 290 293 295 297 299 300 302 303 304 305 306 307 307 308 308 308 309 309 309 310 310 310 310 310 309 309 307 306 304 302 301 299 299 298
249 255 261 268 273 278 283 286 289 292 294 296 298 300 302 303 304 306 307 308 308 308 309 309 310 310 311 311 311 311 311 311 311 310 310 310 308 306 305 303 302 301 300
251 257 264 271 276 281 285 288 291 293 296 298 300 301 303 304 306 307 308 309 309 310 311 311 312 312 312 312 313 313 313 312 312 312 312 312 311 310 309 308 306 304 302
253 261 268 274 279 283 286 290 292 295 297 299 301 303 304 306 307 308 309 310 310 311 312 313 313 313 314 314 315 315 314 313 313 313 314 315 315 314 313 312 311 308 306
258 266 273 278 282 285 289 291 294 296 298 300 302 304 306 307 309 309 310 311 312 313 313 314 314 315 315 316 316 316 315 315 315 316 317 318 319 319 319 318 316 314 309
265 272 277 281 285 288 291 293 296 298 300 302 304 306 308 309 310 311 312 313 314 314 315 315 316 316 317 317 317 316 315 315 315 317 319 321 322 322 323 322 321 319 315
271 276 280 284 287 290 293 295 298 300 302 304 306 307 309 310 311 312 313 314 315 316 316 317 317 318 318 317 317 316 316 315 316 318 320 323 324 325 326 326 325 324 321
276 280 284 287 290 292 295 297 299 301 304 306 307 309 310 311 312 313 314 315 316 317 318 318 318 318 318 317 317 318 317 317 318 319 322 324 325 326 326 326 325 326 326
279 283 286 289 292 294 297 299 301 303 305 307 309 310 311 312 313 314 315 317 318 318 319 319 319 319 319 318 319 319 319 319 319 320 321 322 323 324 325 326 326 327 328
283 286 289 292 294 296 299 301 303 305 307 309 310 311 313 314 315 317 318 319 319 320 320 320 320 319 319 319 320 321 321 321 321 322 322 322 322 324 325 326 327 328 330
286 289 292 294 297 299 301 303 305 307 308 310 312 313 314 316 317 318 319 320 320 321 321 321 320 319 319 320 321 322 323 322 322 322 323 323 324 325 327 327 328 328 328
289 292 294 297 299 300 303 305 307 308 310 311 313 314 316 317 318 319 320 321 321 322 322 321 321 321 321 322 323 324 324 324 324 325 325 325 325 326 328 329 329 329 327
292 295 297 299 301 303 305 307 308 310 311 313 314 316 317 318 319 320 321 322 322 323 322 322 322 323 324 325 327 328 329 328 328 328 328 327 327 326 326 328 328 328 327
296 298 300 302 303 305 307 309 310 311 313 314 316 317 318 319 320 321 323 323 324 324 324 324 325 326 327 329 330 331 332 332 332 332 331 329 327 326 325 325 326 327 328
298 300 302 303 305 307 309 311 312 314 315 316 318 319 320 321 322 323 324 324 325 325 326 326 326 328 329 331 332 333 333 333 332 331 331 329 328 325 324 323 324 325 326
300 302 304 306 307 309 311 312 314 316 317 318 320 321 322 322 323 324 325 325 325 325 326 327 329 331 333 335 336 336 335 334 332 331 331 330 329 327 326 325 324 325 326
303 304 306 308 309 311 312 314 315 317 318 319 320 322 323 323 324 324 325 325 325 326 328 329 332 335 337 338 338 338 338 337 336 334 333 333 332 331 330 329 327 326 327
304 306 308 309 311 312 314 316 317 319 320 321 322 323 324 324 324 324 325 325 325 326 329 332 335 338 340 340 341 341 341 340 339 338 337 336 336 335 334 333 332 331 331
306 308 310 311 313 315 316 318 319 320 321 322 323 323 324 324 324 324 324 325 326 329 332 337 340 342 343 343 343 343 343 342 342 341 340 339 339 338 337 336 336 334 333
308 310 311 313 315 316 318 319 320 322 322 323 324 324 325 325 325 324 325 326 328 333 339 344 346 346 346 345 345 345 345 344 344 344 343 342 341 340 339 339 338 337 335
310 311 313 315 317 318 320 321 322 323 323 324 325 325 325 326 326 325 326 328 333 340 346 349 349 349 349 348 348 348 348 347 347 347 347 346 345 344 342 340 338 339 340
312 314 315 317 319 320 321 322 323 324 324 325 326 326 326 326 325 326 328 333 341 348 352 353 353 353 353 352 352 352 352 352 352 352 350 349 347 346 346 345 344 343 345
314 316 317 319 320 321 322 323 324 324 325 326 326 326 326 325 325 327 331 340 350 356 358 358 358 357 357 357 357 357 358 358 357 355 354 353 352 351 351 351 351 352 355
316 317 319 320 321 322 323 324 324 325 326 327 327 327 326 326 326 329 338 353 1 4 5 4 2 1 1 1 2 3 3 2 1 0 360 359 359 360 0 2 4 9 21
317 319 320 321 322 323 324 324 325 326 327 327 327 327 326 326 328 338 4 13 14 12 10 8 6 6 7 7 7 7 8 8 7 7 8 9 11 13 15 19 26 36 52